Location: Newark
(30.1000°N, 109.4667°E)
Time: 06:16:37
(UTC+00:00)

Vanguard 2 Rocket - Pass Details

Date: 20 February 2020
Orbit: 554 x 3326 km, 32.9° (Epoch: 07 April)

Event Time Altitude Azimuth Distance (km) Brightness Sun altitude
Rises 11:30:32 0° 231° (SW) 7,298 12.5 -12.9°
Reaches altitude 10° 11:35:37 10° 228° (SW) 6,263 12.0 -14.0°
Maximum altitude 11:54:51 62° 154° (SSE) 2,963 9.3 -18.2°
Enters shadow 12:03:45 26° 84° (E) 3,557 9.2 -20.1°
